User: anonymous   Login
Location: Vancouver
(49.2500°N, 123.1330°W)
Time: 18:06:49
(UTC-07:00)
Language:

Cosmos 1939 Rocket - Orbit

View from above orbital plane
View from above orbital plane
View from above satellite
View from above satellite

Ground track
Ground track

The orbit data is extracted from the following two-line orbital elements,

1 19046U 88032B   16150.75586990  .00001215  00000-0  96156-4 0  9993
2 19046  97.5831 201.4499 0038155 198.3054 161.6800 15.01908664515087
Epoch (UTC): 29 May 2016 18:08:27
Eccentricity: 0.0038155
inclination: 97.5831°
perigee height: 534 km
apogee height: 587 km
right ascension of ascending node: 201.4499°
argument of perigee: 198.3054°
revolutions per day: 15.01908664
mean anomaly at epoch: 161.6800°
orbit number at epoch: 51508

The dashed part of the orbit path shows where the satellite is in the earth's shadow,  

DLR